Time,TemperatureF,DewpointF,PressureIn,WindDirection,WindDirectionDegrees,WindSpeedMPH,WindSpeedGustMPH,Humidity,HourlyPrecipIn,Conditions,Clouds,dailyrainin,SoftwareType,DateUTC
2013-05-13 00:00:00,63.9,56.5,29.83,North,360,0.0,12.0,77,0.00,,,0.00,Wunderground v.1.15,2013-05-13 07:00:00,
2013-05-13 00:05:00,63.9,56.9,29.83,North,360,0.0,12.0,78,0.00,,,0.00,Wunderground v.1.15,2013-05-13 07:05:00,
2013-05-13 00:10:00,63.9,56.9,29.84,North,360,0.0,12.0,78,0.00,,,0.00,Wunderground v.1.15,2013-05-13 07:10:00,
2013-05-13 00:15:00,63.7,56.4,29.84,North,360,0.0,12.0,77,0.00,,,0.00,Wunderground v.1.15,2013-05-13 07:15:00,
2013-05-13 00:20:00,63.5,56.5,29.83,North,360,0.0,12.0,78,0.00,,,0.00,Wunderground v.1.15,2013-05-13 07:20:00,
2013-05-13 00:26:00,63.4,56.8,29.83,North,360,0.0,12.0,79,0.00,,,0.00,Wunderground v.1.15,2013-05-13 07:26:00,
2013-05-13 00:31:00,63.3,56.7,29.83,North,360,0.0,12.0,79,0.00,,,0.00,Wunderground v.1.15,2013-05-13 07:31:00,
2013-05-13 00:37:00,63.2,56.6,29.83,North,360,0.0,12.0,79,0.00,,,0.00,Wunderground v.1.15,2013-05-13 07:37:00,
2013-05-13 00:42:00,63.1,56.5,29.83,North,360,0.0,12.0,79,0.00,,,0.00,Wunderground v.1.15,2013-05-13 07:42:00,
2013-05-13 00:47:00,63.0,56.7,29.83,North,360,0.0,12.0,80,0.00,,,0.00,Wunderground v.1.15,2013-05-13 07:47:00,
2013-05-13 00:52:00,63.0,56.4,29.83,North,360,0.0,12.0,79,0.00,,,0.00,Wunderground v.1.15,2013-05-13 07:52:00,
2013-05-13 00:57:00,63.1,56.8,29.83,North,360,0.0,12.0,80,0.00,,,0.00,Wunderground v.1.15,2013-05-13 07:57:00,
2013-05-13 01:02:00,63.0,56.7,29.83,North,360,0.0,12.0,80,0.00,,,0.00,Wunderground v.1.15,2013-05-13 08:02:00,
2013-05-13 01:08:00,63.0,56.4,29.83,North,360,0.0,12.0,79,0.00,,,0.00,Wunderground v.1.15,2013-05-13 08:08:00,
2013-05-13 01:13:00,63.0,56.4,29.83,North,360,0.0,12.0,79,0.00,,,0.00,Wunderground v.1.15,2013-05-13 08:13:00,
2013-05-13 01:18:00,63.1,56.5,29.84,North,360,0.0,12.0,79,0.00,,,0.00,Wunderground v.1.15,2013-05-13 08:18:00,
2013-05-13 01:23:00,63.2,56.6,29.84,North,360,0.0,12.0,79,0.00,,,0.00,Wunderground v.1.15,2013-05-13 08:23:00,
2013-05-13 01:28:00,63.2,56.2,29.84,North,360,0.0,12.0,78,0.00,,,0.00,Wunderground v.1.15,2013-05-13 08:28:00,
2013-05-13 01:33:00,63.1,56.1,29.84,North,360,0.0,12.0,78,0.00,,,0.00,Wunderground v.1.15,2013-05-13 08:33:00,
2013-05-13 01:38:00,62.7,55.7,29.84,North,360,0.0,12.0,78,0.00,,,0.00,Wunderground v.1.15,2013-05-13 08:38:00,
2013-05-13 01:43:00,62.3,55.7,29.84,North,360,0.0,12.0,79,0.00,,,0.00,Wunderground v.1.15,2013-05-13 08:43:00,
2013-05-13 01:48:00,62.1,55.9,29.84,North,360,0.0,12.0,80,0.00,,,0.00,Wunderground v.1.15,2013-05-13 08:48:00,
2013-05-13 01:54:00,61.9,55.7,29.84,North,360,0.0,12.0,80,0.00,,,0.00,Wunderground v.1.15,2013-05-13 08:54:00,
2013-05-13 01:59:00,61.7,56.1,29.84,North,360,0.0,12.0,82,0.00,,,0.00,Wunderground v.1.15,2013-05-13 08:59:00,
2013-05-13 02:04:00,61.5,55.6,29.84,North,360,0.0,12.0,81,0.00,,,0.00,Wunderground v.1.15,2013-05-13 09:04:00,
2013-05-13 02:09:00,61.4,55.9,29.83,North,360,0.0,12.0,82,0.00,,,0.00,Wunderground v.1.15,2013-05-13 09:09:00,
2013-05-13 02:14:00,61.2,56.0,29.83,North,360,0.0,12.0,83,0.00,,,0.00,Wunderground v.1.15,2013-05-13 09:14:00,
2013-05-13 02:19:00,61.1,55.9,29.83,North,360,0.0,12.0,83,0.00,,,0.00,Wunderground v.1.15,2013-05-13 09:19:00,
2013-05-13 02:24:00,60.9,55.7,29.83,North,360,0.0,12.0,83,0.00,,,0.00,Wunderground v.1.15,2013-05-13 09:24:00,
2013-05-13 02:29:00,60.8,55.6,29.83,North,360,0.0,12.0,83,0.00,,,0.00,Wunderground v.1.15,2013-05-13 09:29:00,
2013-05-13 02:34:00,60.6,55.7,29.83,North,360,0.0,12.0,84,0.00,,,0.00,Wunderground v.1.15,2013-05-13 09:34:00,
2013-05-13 02:39:00,60.5,55.6,29.83,North,360,0.0,12.0,84,0.00,,,0.00,Wunderground v.1.15,2013-05-13 09:39:00,
2013-05-13 02:44:00,60.4,55.5,29.83,North,360,0.0,12.0,84,0.00,,,0.00,Wunderground v.1.15,2013-05-13 09:44:00,
2013-05-13 02:49:00,60.3,55.4,29.83,North,360,0.0,12.0,84,0.00,,,0.00,Wunderground v.1.15,2013-05-13 09:49:00,
2013-05-13 02:55:00,60.1,55.6,29.83,North,360,0.0,12.0,85,0.00,,,0.00,Wunderground v.1.15,2013-05-13 09:55:00,
2013-05-13 03:00:00,60.0,55.5,29.82,North,360,0.0,12.0,85,0.00,,,0.00,Wunderground v.1.15,2013-05-13 10:00:00,
2013-05-13 03:05:00,59.9,55.4,29.82,North,360,0.0,12.0,85,0.00,,,0.00,Wunderground v.1.15,2013-05-13 10:05:00,
2013-05-13 03:10:00,59.8,55.3,29.82,North,360,0.0,12.0,85,0.00,,,0.00,Wunderground v.1.15,2013-05-13 10:10:00,
2013-05-13 03:15:00,59.7,55.5,29.82,North,360,0.0,12.0,86,0.00,,,0.00,Wunderground v.1.15,2013-05-13 10:15:00,
2013-05-13 03:20:00,59.5,55.3,29.82,North,360,0.0,12.0,86,0.00,,,0.00,Wunderground v.1.15,2013-05-13 10:20:00,
2013-05-13 03:26:00,59.4,55.2,29.82,North,360,0.0,12.0,86,0.00,,,0.00,Wunderground v.1.15,2013-05-13 10:26:00,
2013-05-13 03:31:00,59.2,55.0,29.82,North,360,0.0,12.0,86,0.00,,,0.00,Wunderground v.1.15,2013-05-13 10:31:00,
2013-05-13 03:37:00,59.0,54.8,29.82,North,360,0.0,12.0,86,0.00,,,0.00,Wunderground v.1.15,2013-05-13 10:37:00,
2013-05-13 03:42:00,59.0,54.8,29.82,North,360,0.0,12.0,86,0.00,,,0.00,Wunderground v.1.15,2013-05-13 10:42:00,
2013-05-13 03:47:00,58.9,54.7,29.82,North,360,0.0,12.0,86,0.00,,,0.00,Wunderground v.1.15,2013-05-13 10:47:00,
2013-05-13 03:52:00,58.9,54.7,29.81,North,360,0.0,12.0,86,0.00,,,0.00,Wunderground v.1.15,2013-05-13 10:52:00,
2013-05-13 03:57:00,58.9,54.7,29.81,North,360,0.0,12.0,86,0.00,,,0.00,Wunderground v.1.15,2013-05-13 10:57:00,
2013-05-13 04:02:00,58.9,54.4,29.81,North,360,0.0,12.0,85,0.00,,,0.00,Wunderground v.1.15,2013-05-13 11:02:00,
2013-05-13 04:07:00,58.9,54.4,29.81,North,360,0.0,12.0,85,0.00,,,0.00,Wunderground v.1.15,2013-05-13 11:07:00,
2013-05-13 04:12:00,58.8,54.3,29.81,North,360,0.0,12.0,85,0.00,,,0.00,Wunderground v.1.15,2013-05-13 11:12:00,
2013-05-13 04:17:00,58.7,54.2,29.81,North,360,0.0,12.0,85,0.00,,,0.00,Wunderground v.1.15,2013-05-13 11:17:00,
2013-05-13 04:22:00,58.7,54.2,29.81,North,360,0.0,12.0,85,0.00,,,0.00,Wunderground v.1.15,2013-05-13 11:22:00,
2013-05-13 04:28:00,58.7,54.2,29.81,North,360,0.0,12.0,85,0.00,,,0.00,Wunderground v.1.15,2013-05-13 11:28:00,
2013-05-13 04:34:00,58.7,54.2,29.81,North,360,0.0,12.0,85,0.00,,,0.00,Wunderground v.1.15,2013-05-13 11:34:00,
2013-05-13 04:39:00,58.8,54.3,29.81,North,360,0.0,12.0,85,0.00,,,0.00,Wunderground v.1.15,2013-05-13 11:39:00,
2013-05-13 04:44:00,58.8,54.0,29.81,North,360,0.0,12.0,84,0.00,,,0.00,Wunderground v.1.15,2013-05-13 11:44:00,
2013-05-13 04:49:00,58.8,54.0,29.81,North,360,0.0,12.0,84,0.00,,,0.00,Wunderground v.1.15,2013-05-13 11:49:00,
2013-05-13 04:54:00,58.9,54.1,29.81,North,360,0.0,12.0,84,0.00,,,0.00,Wunderground v.1.15,2013-05-13 11:54:00,
2013-05-13 04:59:00,59.0,54.8,29.81,North,360,0.0,12.0,86,0.00,,,0.00,Wunderground v.1.15,2013-05-13 11:59:00,
2013-05-13 05:04:00,58.9,53.7,29.81,North,360,0.0,12.0,83,0.00,,,0.00,Wunderground v.1.15,2013-05-13 12:04:00,
2013-05-13 05:10:00,58.9,53.7,29.81,North,360,0.0,12.0,83,0.00,,,0.00,Wunderground v.1.15,2013-05-13 12:10:00,
2013-05-13 05:15:00,58.8,53.6,29.81,North,360,0.0,12.0,83,0.00,,,0.00,Wunderground v.1.15,2013-05-13 12:15:00,
2013-05-13 05:20:00,58.8,53.6,29.82,North,360,0.0,12.0,83,0.00,,,0.00,Wunderground v.1.15,2013-05-13 12:20:00,
2013-05-13 05:25:00,58.7,53.5,29.82,North,360,0.0,12.0,83,0.00,,,0.00,Wunderground v.1.15,2013-05-13 12:25:00,
2013-05-13 05:30:00,58.6,53.5,29.82,North,360,0.0,12.0,83,0.00,,,0.00,Wunderground v.1.15,2013-05-13 12:30:00,
2013-05-13 05:36:00,58.5,53.7,29.82,North,360,0.0,12.0,84,0.00,,,0.00,Wunderground v.1.15,2013-05-13 12:36:00,
2013-05-13 05:41:00,58.3,53.5,29.82,North,360,0.0,12.0,84,0.00,,,0.00,Wunderground v.1.15,2013-05-13 12:41:00,
2013-05-13 05:46:00,58.1,53.0,29.82,North,360,0.0,12.0,83,0.00,,,0.00,Wunderground v.1.15,2013-05-13 12:46:00,
2013-05-13 05:52:00,57.9,52.8,29.83,North,360,0.0,12.0,83,0.00,,,0.00,Wunderground v.1.15,2013-05-13 12:52:00,
2013-05-13 05:57:00,57.7,52.9,29.83,North,360,0.0,12.0,84,0.00,,,0.00,Wunderground v.1.15,2013-05-13 12:57:00,
2013-05-13 06:02:00,57.6,52.8,29.83,North,360,0.0,12.0,84,0.00,,,0.00,Wunderground v.1.15,2013-05-13 13:02:00,
2013-05-13 06:07:00,57.6,53.4,29.83,North,360,0.0,12.0,86,0.00,,,0.00,Wunderground v.1.15,2013-05-13 13:07:00,
2013-05-13 06:12:00,57.5,53.0,29.84,North,360,0.0,12.0,85,0.00,,,0.00,Wunderground v.1.15,2013-05-13 13:12:00,
2013-05-13 06:17:00,57.5,53.7,29.84,North,360,0.0,12.0,87,0.00,,,0.00,Wunderground v.1.15,2013-05-13 13:17:00,
2013-05-13 06:22:00,57.5,54.3,29.84,North,360,0.0,12.0,89,0.00,,,0.00,Wunderground v.1.15,2013-05-13 13:22:00,
2013-05-13 06:27:00,57.5,54.0,29.84,North,360,0.0,12.0,88,0.00,,,0.00,Wunderground v.1.15,2013-05-13 13:27:00,
2013-05-13 06:32:00,57.5,54.0,29.84,North,360,0.0,12.0,88,0.00,,,0.00,Wunderground v.1.15,2013-05-13 13:32:00,
2013-05-13 06:37:00,57.5,54.3,29.84,North,360,0.0,12.0,89,0.00,,,0.00,Wunderground v.1.15,2013-05-13 13:37:00,
2013-05-13 06:43:00,57.6,54.4,29.84,North,360,0.0,12.0,89,0.00,,,0.00,Wunderground v.1.15,2013-05-13 13:43:00,
2013-05-13 06:48:00,57.7,54.2,29.85,North,360,0.0,12.0,88,0.00,,,0.00,Wunderground v.1.15,2013-05-13 13:48:00,
2013-05-13 06:53:00,57.7,54.2,29.85,North,360,0.0,12.0,88,0.00,,,0.00,Wunderground v.1.15,2013-05-13 13:53:00,
2013-05-13 06:58:00,57.9,54.4,29.85,North,360,0.0,12.0,88,0.00,,,0.00,Wunderground v.1.15,2013-05-13 13:58:00,
2013-05-13 07:03:00,58.1,54.9,29.85,North,360,0.0,12.0,89,0.00,,,0.00,Wunderground v.1.15,2013-05-13 14:03:00,
2013-05-13 07:08:00,58.8,55.3,29.86,North,360,0.0,12.0,88,0.00,,,0.00,Wunderground v.1.15,2013-05-13 14:08:00,
2013-05-13 07:13:00,59.6,55.4,29.86,North,360,0.0,12.0,86,0.00,,,0.00,Wunderground v.1.15,2013-05-13 14:13:00,
2013-05-13 07:18:00,60.0,55.8,29.86,North,360,0.0,12.0,86,0.00,,,0.00,Wunderground v.1.15,2013-05-13 14:18:00,
2013-05-13 07:23:00,60.5,56.3,29.86,North,360,0.0,12.0,86,0.00,,,0.00,Wunderground v.1.15,2013-05-13 14:23:00,
2013-05-13 07:28:00,61.1,56.9,29.86,North,360,0.0,12.0,86,0.00,,,0.00,Wunderground v.1.15,2013-05-13 14:28:00,
2013-05-13 07:33:00,61.7,57.1,29.86,North,360,0.0,12.0,85,0.00,,,0.00,Wunderground v.1.15,2013-05-13 14:33:00,
2013-05-13 07:39:00,63.2,57.9,29.86,North,360,0.0,12.0,83,0.00,,,0.00,Wunderground v.1.15,2013-05-13 14:39:00,
2013-05-13 07:44:00,63.8,57.9,29.86,North,360,0.0,12.0,81,0.00,,,0.00,Wunderground v.1.15,2013-05-13 14:44:00,
2013-05-13 07:49:00,64.3,58.3,29.86,WSW,248,0.0,12.0,81,0.00,,,0.00,Wunderground v.1.15,2013-05-13 14:49:00,
2013-05-13 07:54:00,64.6,58.3,29.86,WSW,248,0.0,12.0,80,0.00,,,0.00,Wunderground v.1.15,2013-05-13 14:54:00,
2013-05-13 07:59:00,65.0,58.7,29.86,WSW,248,0.0,12.0,80,0.00,,,0.00,Wunderground v.1.15,2013-05-13 14:59:00,
2013-05-13 08:04:00,65.8,59.1,29.86,WSW,248,0.0,12.0,79,0.00,,,0.00,Wunderground v.1.15,2013-05-13 15:04:00,
2013-05-13 08:09:00,66.3,59.2,29.86,WSW,239,0.0,12.0,78,0.00,,,0.00,Wunderground v.1.15,2013-05-13 15:09:00,
2013-05-13 08:14:00,66.8,59.7,29.87,WSW,238,0.0,12.0,78,0.00,,,0.00,Wunderground v.1.15,2013-05-13 15:14:00,
2013-05-13 08:20:00,67.3,59.5,29.87,WSW,239,0.0,12.0,76,0.00,,,0.00,Wunderground v.1.15,2013-05-13 15:20:00,
2013-05-13 08:25:00,67.5,59.3,29.87,WSW,239,0.0,12.0,75,0.00,,,0.00,Wunderground v.1.15,2013-05-13 15:25:00,
2013-05-13 08:30:00,67.8,59.2,29.87,WSW,238,0.0,12.0,74,0.00,,,0.00,Wunderground v.1.15,2013-05-13 15:30:00,
2013-05-13 08:35:00,68.6,59.6,29.87,WSW,239,0.0,12.0,73,0.00,,,0.00,Wunderground v.1.15,2013-05-13 15:35:00,
2013-05-13 08:40:00,69.1,58.9,29.87,WSW,238,0.0,12.0,70,0.00,,,0.00,Wunderground v.1.15,2013-05-13 15:40:00,
2013-05-13 08:45:00,69.9,59.3,29.87,WSW,239,0.0,12.0,69,0.00,,,0.00,Wunderground v.1.15,2013-05-13 15:45:00,
2013-05-13 08:50:00,70.4,60.1,29.87,WSW,240,0.0,12.0,70,0.00,,,0.00,Wunderground v.1.15,2013-05-13 15:50:00,
2013-05-13 08:56:00,70.7,60.0,29.87,WSW,239,0.0,12.0,69,0.00,,,0.00,Wunderground v.1.15,2013-05-13 15:56:00,
2013-05-13 09:01:00,70.8,60.5,29.87,WSW,239,0.0,12.0,70,0.00,,,0.00,Wunderground v.1.15,2013-05-13 16:01:00,
2013-05-13 09:06:00,71.3,60.2,29.87,WSW,238,0.0,12.0,68,0.00,,,0.00,Wunderground v.1.15,2013-05-13 16:06:00,
2013-05-13 09:11:00,71.7,61.0,29.87,WSW,237,1.0,12.0,69,0.00,,,0.00,Wunderground v.1.15,2013-05-13 16:11:00,
2013-05-13 09:17:00,72.5,60.5,29.87,SW,236,0.0,12.0,66,0.00,,,0.00,Wunderground v.1.15,2013-05-13 16:17:00,
2013-05-13 09:22:00,73.2,60.3,29.87,SW,236,0.0,12.0,64,0.00,,,0.00,Wunderground v.1.15,2013-05-13 16:22:00,
2013-05-13 09:27:00,74.1,60.7,29.87,WSW,248,0.0,12.0,63,0.00,,,0.00,Wunderground v.1.15,2013-05-13 16:27:00,
2013-05-13 09:32:00,74.8,61.4,29.87,West,259,1.0,12.0,63,0.00,,,0.00,Wunderground v.1.15,2013-05-13 16:32:00,
2013-05-13 09:37:00,75.7,61.8,29.87,West,260,1.0,12.0,62,0.00,,,0.00,Wunderground v.1.15,2013-05-13 16:37:00,
2013-05-13 09:42:00,76.7,62.2,29.86,West,260,0.0,12.0,61,0.00,,,0.00,Wunderground v.1.15,2013-05-13 16:42:00,
2013-05-13 09:47:00,77.1,62.1,29.86,WSW,245,1.0,12.0,60,0.00,,,0.00,Wunderground v.1.15,2013-05-13 16:47:00,
2013-05-13 09:53:00,77.5,61.1,29.86,West,267,1.0,12.0,57,0.00,,,0.00,Wunderground v.1.15,2013-05-13 16:53:00,
2013-05-13 09:59:00,78.2,60.7,29.86,West,265,1.0,1.0,55,0.00,,,0.00,Wunderground v.1.15,2013-05-13 16:59:00,
2013-05-13 10:04:00,79.0,61.5,29.86,West,261,1.0,12.0,55,0.00,,,0.00,Wunderground v.1.15,2013-05-13 17:04:00,
2013-05-13 10:09:00,79.8,61.7,29.86,West,279,0.0,12.0,54,0.00,,,0.00,Wunderground v.1.15,2013-05-13 17:09:00,
2013-05-13 10:14:00,80.1,62.5,29.86,SW,227,1.0,12.0,55,0.00,,,0.00,Wunderground v.1.15,2013-05-13 17:14:00,
2013-05-13 10:19:00,80.5,62.8,29.86,SW,234,1.0,1.0,55,0.00,,,0.00,Wunderground v.1.15,2013-05-13 17:19:00,
2013-05-13 10:24:00,81.5,62.7,29.86,WSW,238,0.0,12.0,53,0.00,,,0.00,Wunderground v.1.15,2013-05-13 17:24:00,
2013-05-13 10:29:00,82.4,60.1,29.86,WSW,243,1.0,12.0,47,0.00,,,0.00,Wunderground v.1.15,2013-05-13 17:29:00,
2013-05-13 10:34:00,83.3,60.4,29.86,WSW,245,1.0,12.0,46,0.00,,,0.00,Wunderground v.1.15,2013-05-13 17:34:00,
2013-05-13 10:39:00,84.1,61.7,29.86,WSW,248,0.0,12.0,47,0.00,,,0.00,Wunderground v.1.15,2013-05-13 17:39:00,
2013-05-13 10:44:00,84.7,63.4,29.86,WSW,249,0.0,12.0,49,0.00,,,0.00,Wunderground v.1.15,2013-05-13 17:44:00,
2013-05-13 10:50:00,84.7,61.6,29.86,WSW,241,1.0,12.0,46,0.00,,,0.00,Wunderground v.1.15,2013-05-13 17:50:00,
2013-05-13 10:55:00,85.0,63.1,29.86,WSW,242,1.0,12.0,48,0.00,,,0.00,Wunderground v.1.15,2013-05-13 17:55:00,
2013-05-13 11:01:00,85.0,63.7,29.86,WSW,252,1.0,12.0,49,0.00,,,0.00,Wunderground v.1.15,2013-05-13 18:01:00,
2013-05-13 11:06:00,85.1,63.2,29.87,West,267,2.0,12.0,48,0.00,,,0.00,Wunderground v.1.15,2013-05-13 18:06:00,
2013-05-13 11:11:00,85.4,62.9,29.86,West,274,2.0,12.0,47,0.00,,,0.00,Wunderground v.1.15,2013-05-13 18:11:00,
2013-05-13 11:16:00,85.9,64.5,29.86,WNW,292,2.0,12.0,49,0.00,,,0.00,Wunderground v.1.15,2013-05-13 18:16:00,
2013-05-13 11:21:00,86.5,64.5,29.87,WNW,291,1.0,12.0,48,0.00,,,0.00,Wunderground v.1.15,2013-05-13 18:21:00,
2013-05-13 11:26:00,87.3,64.6,29.86,WSW,256,1.0,12.0,47,0.00,,,0.00,Wunderground v.1.15,2013-05-13 18:26:00,
2013-05-13 11:32:00,87.6,64.3,29.86,West,275,2.0,12.0,46,0.00,,,0.00,Wunderground v.1.15,2013-05-13 18:32:00,
2013-05-13 11:37:00,87.8,63.8,29.86,West,263,2.0,12.0,45,0.00,,,0.00,Wunderground v.1.15,2013-05-13 18:37:00,
2013-05-13 11:42:00,88.0,64.0,29.86,WSW,254,3.0,12.0,45,0.00,,,0.00,Wunderground v.1.15,2013-05-13 18:42:00,
2013-05-13 11:47:00,88.5,63.1,29.86,West,276,2.0,12.0,43,0.00,,,0.00,Wunderground v.1.15,2013-05-13 18:47:00,
2013-05-13 11:52:00,88.8,64.1,29.86,WSW,256,2.0,12.0,44,0.00,,,0.00,Wunderground v.1.15,2013-05-13 18:52:00,
2013-05-13 11:57:00,89.0,62.9,29.86,West,271,3.0,12.0,42,0.00,,,0.00,Wunderground v.1.15,2013-05-13 18:57:00,
2013-05-13 12:02:00,89.2,63.1,29.86,WNW,290,2.0,12.0,42,0.00,,,0.00,Wunderground v.1.15,2013-05-13 19:02:00,
2013-05-13 12:07:00,89.5,62.7,29.85,WNW,286,3.0,12.0,41,0.00,,,0.00,Wunderground v.1.15,2013-05-13 19:07:00,
2013-05-13 12:13:00,89.9,63.0,29.85,WSW,256,4.0,12.0,41,0.00,,,0.00,Wunderground v.1.15,2013-05-13 19:13:00,
2013-05-13 12:18:00,90.2,62.6,29.86,West,275,4.0,12.0,40,0.00,,,0.00,Wunderground v.1.15,2013-05-13 19:18:00,
2013-05-13 12:23:00,90.4,62.8,29.85,West,260,3.0,12.0,40,0.00,,,0.00,Wunderground v.1.15,2013-05-13 19:23:00,
2013-05-13 12:28:00,90.1,61.8,29.85,West,277,4.0,12.0,39,0.00,,,0.00,Wunderground v.1.15,2013-05-13 19:28:00,
2013-05-13 12:33:00,89.6,61.4,29.85,WNW,286,5.0,12.0,39,0.00,,,0.00,Wunderground v.1.15,2013-05-13 19:33:00,
2013-05-13 12:38:00,89.3,62.5,29.85,West,281,5.0,12.0,41,0.00,,,0.00,Wunderground v.1.15,2013-05-13 19:38:00,
2013-05-13 12:43:00,89.2,62.4,29.85,West,275,5.0,12.0,41,0.00,,,0.00,Wunderground v.1.15,2013-05-13 19:43:00,
2013-05-13 12:48:00,89.1,60.9,29.85,West,280,4.0,12.0,39,0.00,,,0.00,Wunderground v.1.15,2013-05-13 19:48:00,
2013-05-13 12:53:00,89.0,60.8,29.85,West,264,4.0,12.0,39,0.00,,,0.00,Wunderground v.1.15,2013-05-13 19:53:00,
2013-05-13 12:58:00,88.9,60.0,29.85,West,275,5.0,12.0,38,0.00,,,0.00,Wunderground v.1.15,2013-05-13 19:58:00,
2013-05-13 13:03:00,88.5,61.8,29.85,West,281,6.0,12.0,41,0.00,,,0.00,Wunderground v.1.15,2013-05-13 20:03:00,
2013-05-13 13:08:00,88.7,60.6,29.85,West,276,4.0,12.0,39,0.00,,,0.00,Wunderground v.1.15,2013-05-13 20:08:00,
2013-05-13 13:13:00,89.1,60.9,29.85,West,262,4.0,12.0,39,0.00,,,0.00,Wunderground v.1.15,2013-05-13 20:13:00,
2013-05-13 13:19:00,89.3,61.1,29.85,West,261,4.0,4.0,39,0.00,,,0.00,Wunderground v.1.15,2013-05-13 20:19:00,
2013-05-13 13:24:00,89.4,61.2,29.85,WNW,286,4.0,12.0,39,0.00,,,0.00,Wunderground v.1.15,2013-05-13 20:24:00,
2013-05-13 13:29:00,89.6,61.4,29.84,West,280,3.0,12.0,39,0.00,,,0.00,Wunderground v.1.15,2013-05-13 20:29:00,
2013-05-13 13:34:00,89.5,61.3,29.85,WSW,257,3.0,12.0,39,0.00,,,0.00,Wunderground v.1.15,2013-05-13 20:34:00,
2013-05-13 13:39:00,89.1,60.9,29.84,West,261,4.0,12.0,39,0.00,,,0.00,Wunderground v.1.15,2013-05-13 20:39:00,
2013-05-13 13:45:00,88.9,62.2,29.84,West,266,5.0,12.0,41,0.00,,,0.00,Wunderground v.1.15,2013-05-13 20:45:00,
2013-05-13 13:50:00,89.0,62.2,29.84,NW,308,4.0,12.0,41,0.00,,,0.00,Wunderground v.1.15,2013-05-13 20:50:00,
2013-05-13 13:55:00,89.1,62.3,29.84,West,268,3.0,12.0,41,0.00,,,0.00,Wunderground v.1.15,2013-05-13 20:55:00,
2013-05-13 14:01:00,89.4,61.2,29.85,West,273,3.0,12.0,39,0.00,,,0.00,Wunderground v.1.15,2013-05-13 21:01:00,
2013-05-13 14:06:00,89.2,61.0,29.85,West,277,4.0,12.0,39,0.00,,,0.00,Wunderground v.1.15,2013-05-13 21:06:00,
2013-05-13 14:11:00,89.2,62.4,29.85,WNW,287,4.0,12.0,41,0.00,,,0.00,Wunderground v.1.15,2013-05-13 21:11:00,
2013-05-13 14:16:00,89.5,60.5,29.84,West,262,4.0,12.0,38,0.00,,,0.00,Wunderground v.1.15,2013-05-13 21:16:00,
2013-05-13 14:21:00,89.2,61.0,29.84,WNW,284,5.0,12.0,39,0.00,,,0.00,Wunderground v.1.15,2013-05-13 21:21:00,
2013-05-13 14:26:00,89.3,61.1,29.84,West,276,4.0,12.0,39,0.00,,,0.00,Wunderground v.1.15,2013-05-13 21:26:00,
2013-05-13 14:31:00,89.9,60.1,29.84,West,277,2.0,12.0,37,0.00,,,0.00,Wunderground v.1.15,2013-05-13 21:31:00,
2013-05-13 14:36:00,90.5,59.1,29.84,West,271,2.0,12.0,35,0.00,,,0.00,Wunderground v.1.15,2013-05-13 21:36:00,
2013-05-13 14:41:00,90.4,59.8,29.83,WNW,286,4.0,12.0,36,0.00,,,0.00,Wunderground v.1.15,2013-05-13 21:41:00,
2013-05-13 14:46:00,90.5,59.9,29.83,WNW,293,3.0,12.0,36,0.00,,,0.00,Wunderground v.1.15,2013-05-13 21:46:00,
2013-05-13 14:52:00,90.7,60.8,29.83,West,273,2.0,12.0,37,0.00,,,0.00,Wunderground v.1.15,2013-05-13 21:52:00,
2013-05-13 14:57:00,91.1,59.6,29.82,NW,305,3.0,12.0,35,0.00,,,0.00,Wunderground v.1.15,2013-05-13 21:57:00,
2013-05-13 15:02:00,91.4,59.1,29.82,NW,315,3.0,12.0,34,0.00,,,0.00,Wunderground v.1.15,2013-05-13 22:02:00,
2013-05-13 15:07:00,91.6,59.3,29.82,WNW,303,3.0,12.0,34,0.00,,,0.00,Wunderground v.1.15,2013-05-13 22:07:00,
2013-05-13 15:12:00,91.6,59.3,29.82,WSW,238,3.0,12.0,34,0.00,,,0.00,Wunderground v.1.15,2013-05-13 22:12:00,
2013-05-13 15:17:00,90.9,59.5,29.82,WSW,246,3.0,12.0,35,0.00,,,0.00,Wunderground v.1.15,2013-05-13 22:17:00,
2013-05-13 15:22:00,90.1,59.5,29.82,West,276,3.0,12.0,36,0.00,,,0.00,Wunderground v.1.15,2013-05-13 22:22:00,
2013-05-13 15:27:00,89.8,59.3,29.82,WSW,246,3.0,12.0,36,0.00,,,0.00,Wunderground v.1.15,2013-05-13 22:27:00,
2013-05-13 15:32:00,89.4,60.5,29.82,SW,229,4.0,12.0,38,0.00,,,0.00,Wunderground v.1.15,2013-05-13 22:32:00,
2013-05-13 15:37:00,89.6,60.6,29.82,WNW,294,4.0,12.0,38,0.00,,,0.00,Wunderground v.1.15,2013-05-13 22:37:00,
2013-05-13 15:42:00,89.5,60.5,29.81,West,262,3.0,12.0,38,0.00,,,0.00,Wunderground v.1.15,2013-05-13 22:42:00,
2013-05-13 15:47:00,89.4,59.7,29.82,West,267,3.0,12.0,37,0.00,,,0.00,Wunderground v.1.15,2013-05-13 22:47:00,
2013-05-13 15:53:00,89.4,59.7,29.81,West,281,3.0,12.0,37,0.00,,,0.00,Wunderground v.1.15,2013-05-13 22:53:00,
2013-05-13 15:58:00,89.0,59.3,29.81,WNW,300,4.0,12.0,37,0.00,,,0.00,Wunderground v.1.15,2013-05-13 22:58:00,
2013-05-13 16:03:00,88.7,59.8,29.81,WNW,296,4.0,12.0,38,0.00,,,0.00,Wunderground v.1.15,2013-05-13 23:03:00,
2013-05-13 16:08:00,88.4,59.6,29.81,NW,308,3.0,12.0,38,0.00,,,0.00,Wunderground v.1.15,2013-05-13 23:08:00,
2013-05-13 16:13:00,88.0,57.7,29.81,West,262,3.0,12.0,36,0.00,,,0.00,Wunderground v.1.15,2013-05-13 23:13:00,
2013-05-13 16:19:00,87.2,59.9,29.81,WNW,284,3.0,12.0,40,0.00,,,0.00,Wunderground v.1.15,2013-05-13 23:19:00,
2013-05-13 16:24:00,86.8,58.1,29.81,West,268,3.0,12.0,38,0.00,,,0.00,Wunderground v.1.15,2013-05-13 23:24:00,
2013-05-13 16:29:00,86.2,58.3,29.81,NW,313,4.0,4.0,39,0.00,,,0.00,Wunderground v.1.15,2013-05-13 23:29:00,
2013-05-13 16:35:00,85.9,58.1,29.81,West,275,4.0,12.0,39,0.00,,,0.00,Wunderground v.1.15,2013-05-13 23:35:00,
2013-05-13 16:40:00,85.4,59.0,29.81,NW,307,3.0,4.0,41,0.00,,,0.00,Wunderground v.1.15,2013-05-13 23:40:00,
2013-05-13 16:45:00,85.2,58.8,29.81,WNW,296,3.0,12.0,41,0.00,,,0.00,Wunderground v.1.15,2013-05-13 23:45:00,
2013-05-13 16:50:00,84.9,59.2,29.81,WNW,284,3.0,12.0,42,0.00,,,0.00,Wunderground v.1.15,2013-05-13 23:50:00,
2013-05-13 16:55:00,84.6,59.0,29.81,WNW,294,3.0,12.0,42,0.00,,,0.00,Wunderground v.1.15,2013-05-13 23:55:00,
2013-05-13 17:00:00,84.1,57.9,29.81,West,277,3.0,12.0,41,0.00,,,0.00,Wunderground v.1.15,2013-05-14 00:00:00,
2013-05-13 17:05:00,83.1,57.6,29.81,WNW,283,4.0,12.0,42,0.00,,,0.00,Wunderground v.1.15,2013-05-14 00:05:00,
2013-05-13 17:10:00,82.9,58.1,29.81,NW,311,3.0,12.0,43,0.00,,,0.00,Wunderground v.1.15,2013-05-14 00:10:00,
2013-05-13 17:15:00,82.9,58.7,29.80,NW,324,2.0,12.0,44,0.00,,,0.00,Wunderground v.1.15,2013-05-14 00:15:00,
2013-05-13 17:20:00,83.1,58.9,29.80,West,279,2.0,12.0,44,0.00,,,0.00,Wunderground v.1.15,2013-05-14 00:20:00,
2013-05-13 17:26:00,83.1,58.3,29.80,WNW,287,2.0,12.0,43,0.00,,,0.00,Wunderground v.1.15,2013-05-14 00:26:00,
2013-05-13 17:31:00,83.0,58.8,29.80,West,270,2.0,12.0,44,0.00,,,0.00,Wunderground v.1.15,2013-05-14 00:31:00,
2013-05-13 17:36:00,83.1,58.3,29.80,WNW,292,2.0,12.0,43,0.00,,,0.00,Wunderground v.1.15,2013-05-14 00:36:00,
2013-05-13 17:41:00,83.4,58.6,29.80,NW,317,2.0,12.0,43,0.00,,,0.00,Wunderground v.1.15,2013-05-14 00:41:00,
2013-05-13 17:47:00,83.4,58.6,29.80,NW,309,2.0,12.0,43,0.00,,,0.00,Wunderground v.1.15,2013-05-14 00:47:00,
2013-05-13 17:52:00,83.1,58.3,29.80,West,263,2.0,12.0,43,0.00,,,0.00,Wunderground v.1.15,2013-05-14 00:52:00,
2013-05-13 17:57:00,82.8,57.4,29.80,WNW,292,2.0,12.0,42,0.00,,,0.00,Wunderground v.1.15,2013-05-14 00:57:00,
2013-05-13 18:02:00,82.1,58.0,29.80,West,277,3.0,12.0,44,0.00,,,0.00,Wunderground v.1.15,2013-05-14 01:02:00,
2013-05-13 18:07:00,81.9,57.8,29.80,WNW,298,3.0,12.0,44,0.00,,,0.00,Wunderground v.1.15,2013-05-14 01:07:00,
2013-05-13 18:13:00,81.7,57.7,29.79,West,275,3.0,12.0,44,0.00,,,0.00,Wunderground v.1.15,2013-05-14 01:13:00,
2013-05-13 18:18:00,81.4,58.0,29.79,SW,234,2.0,12.0,45,0.00,,,0.00,Wunderground v.1.15,2013-05-14 01:18:00,
2013-05-13 18:23:00,80.9,57.6,29.80,West,271,1.0,12.0,45,0.00,,,0.00,Wunderground v.1.15,2013-05-14 01:23:00,
2013-05-13 18:28:00,80.9,58.2,29.80,WNW,282,1.0,12.0,46,0.00,,,0.00,Wunderground v.1.15,2013-05-14 01:28:00,
2013-05-13 18:34:00,81.0,58.3,29.80,West,281,1.0,12.0,46,0.00,,,0.00,Wunderground v.1.15,2013-05-14 01:34:00,
2013-05-13 18:39:00,80.3,58.2,29.80,WSW,250,1.0,1.0,47,0.00,,,0.00,Wunderground v.1.15,2013-05-14 01:39:00,
2013-05-13 18:44:00,79.7,57.7,29.80,West,269,1.0,12.0,47,0.00,,,0.00,Wunderground v.1.15,2013-05-14 01:44:00,
2013-05-13 18:49:00,79.4,58.6,29.80,West,275,2.0,2.0,49,0.00,,,0.00,Wunderground v.1.15,2013-05-14 01:49:00,
2013-05-13 18:55:00,79.1,58.9,29.80,West,272,1.0,12.0,50,0.00,,,0.00,Wunderground v.1.15,2013-05-14 01:55:00,
2013-05-13 19:00:00,78.2,58.6,29.80,West,276,2.0,12.0,51,0.00,,,0.00,Wunderground v.1.15,2013-05-14 02:00:00,
2013-05-13 19:05:00,77.4,58.9,29.80,West,275,2.0,12.0,53,0.00,,,0.00,Wunderground v.1.15,2013-05-14 02:05:00,
2013-05-13 19:10:00,76.5,59.1,29.80,West,275,1.0,12.0,55,0.00,,,0.00,Wunderground v.1.15,2013-05-14 02:10:00,
2013-05-13 19:15:00,75.7,58.9,29.80,West,275,1.0,12.0,56,0.00,,,0.00,Wunderground v.1.15,2013-05-14 02:15:00,
2013-05-13 19:20:00,75.1,59.3,29.80,West,275,0.0,12.0,58,0.00,,,0.00,Wunderground v.1.15,2013-05-14 02:20:00,
2013-05-13 19:25:00,74.5,58.8,29.81,West,275,0.0,12.0,58,0.00,,,0.00,Wunderground v.1.15,2013-05-14 02:25:00,
2013-05-13 19:30:00,73.8,58.6,29.81,West,275,1.0,12.0,59,0.00,,,0.00,Wunderground v.1.15,2013-05-14 02:30:00,
2013-05-13 19:35:00,73.2,58.5,29.81,West,275,0.0,12.0,60,0.00,,,0.00,Wunderground v.1.15,2013-05-14 02:35:00,
2013-05-13 19:40:00,72.5,58.7,29.81,West,275,0.0,12.0,62,0.00,,,0.00,Wunderground v.1.15,2013-05-14 02:40:00,
2013-05-13 19:46:00,71.8,58.5,29.81,West,271,0.0,12.0,63,0.00,,,0.00,Wunderground v.1.15,2013-05-14 02:46:00,
2013-05-13 19:51:00,70.9,58.5,29.81,WSW,256,0.0,12.0,65,0.00,,,0.00,Wunderground v.1.15,2013-05-14 02:51:00,
2013-05-13 19:56:00,70.1,58.2,29.81,West,265,0.0,12.0,66,0.00,,,0.00,Wunderground v.1.15,2013-05-14 02:56:00,
2013-05-13 20:01:00,69.3,58.3,29.82,West,263,1.0,12.0,68,0.00,,,0.00,Wunderground v.1.15,2013-05-14 03:01:00,
2013-05-13 20:06:00,68.5,57.9,29.82,West,263,0.0,12.0,69,0.00,,,0.00,Wunderground v.1.15,2013-05-14 03:06:00,
2013-05-13 20:11:00,67.8,57.7,29.82,West,263,0.0,12.0,70,0.00,,,0.00,Wunderground v.1.15,2013-05-14 03:11:00,
2013-05-13 20:16:00,67.3,57.6,29.82,West,263,0.0,12.0,71,0.00,,,0.00,Wunderground v.1.15,2013-05-14 03:16:00,
2013-05-13 20:21:00,66.8,57.5,29.83,West,263,0.0,12.0,72,0.00,,,0.00,Wunderground v.1.15,2013-05-14 03:21:00,
2013-05-13 20:26:00,66.3,57.4,29.83,West,268,0.0,12.0,73,0.00,,,0.00,Wunderground v.1.15,2013-05-14 03:26:00,
2013-05-13 20:31:00,65.7,57.2,29.83,West,272,1.0,12.0,74,0.00,,,0.00,Wunderground v.1.15,2013-05-14 03:31:00,
2013-05-13 20:36:00,65.1,57.0,29.83,West,272,2.0,12.0,75,0.00,,,0.00,Wunderground v.1.15,2013-05-14 03:36:00,
2013-05-13 20:42:00,64.5,57.1,29.83,WNW,302,1.0,12.0,77,0.00,,,0.00,Wunderground v.1.15,2013-05-14 03:42:00,
2013-05-13 20:47:00,63.9,56.9,29.84,West,264,1.0,12.0,78,0.00,,,0.00,Wunderground v.1.15,2013-05-14 03:47:00,
2013-05-13 20:52:00,63.3,56.7,29.84,West,269,2.0,12.0,79,0.00,,,0.00,Wunderground v.1.15,2013-05-14 03:52:00,
2013-05-13 20:57:00,62.9,56.6,29.84,West,273,2.0,12.0,80,0.00,,,0.00,Wunderground v.1.15,2013-05-14 03:57:00,
2013-05-13 21:01:00,62.7,56.4,29.84,West,273,1.0,12.0,80,0.00,,,0.00,Wunderground v.1.15,2013-05-14 04:01:00,
2013-05-13 21:03:00,62.5,56.2,29.84,West,272,1.0,12.0,80,0.00,,,0.00,Wunderground v.1.15,2013-05-14 04:03:00,
2013-05-13 21:04:00,62.5,56.6,29.84,West,272,0.0,12.0,81,0.00,,,0.00,Wunderground v.1.15,2013-05-14 04:04:00,
2013-05-13 21:05:00,62.4,56.5,29.84,West,272,0.0,12.0,81,0.00,,,0.00,Wunderground v.1.15,2013-05-14 04:05:00,
2013-05-13 21:10:00,62.1,56.5,29.84,West,272,0.0,12.0,82,0.00,,,0.00,Wunderground v.1.15,2013-05-14 04:10:00,
2013-05-13 21:11:00,62.0,56.4,29.84,West,272,0.0,12.0,82,0.00,,,0.00,Wunderground v.1.15,2013-05-14 04:11:00,
2013-05-13 21:16:00,61.8,56.2,29.84,West,272,0.0,12.0,82,0.00,,,0.00,Wunderground v.1.15,2013-05-14 04:16:00,
2013-05-13 21:21:00,61.5,56.3,29.84,West,272,0.0,12.0,83,0.00,,,0.00,Wunderground v.1.15,2013-05-14 04:21:00,
2013-05-13 21:26:00,61.3,56.1,29.84,West,272,0.0,12.0,83,0.00,,,0.00,Wunderground v.1.15,2013-05-14 04:26:00,
2013-05-13 21:31:00,61.0,55.8,29.84,West,272,0.0,12.0,83,0.00,,,0.00,Wunderground v.1.15,2013-05-14 04:31:00,
2013-05-13 21:36:00,60.8,55.9,29.84,West,272,0.0,12.0,84,0.00,,,0.00,Wunderground v.1.15,2013-05-14 04:36:00,
2013-05-13 21:42:00,60.5,56.0,29.85,West,272,0.0,12.0,85,0.00,,,0.00,Wunderground v.1.15,2013-05-14 04:42:00,
2013-05-13 21:47:00,60.4,55.9,29.84,West,272,0.0,12.0,85,0.00,,,0.00,Wunderground v.1.15,2013-05-14 04:47:00,
2013-05-13 21:52:00,60.2,55.7,29.84,West,272,0.0,12.0,85,0.00,,,0.00,Wunderground v.1.15,2013-05-14 04:52:00,
2013-05-13 21:57:00,60.0,55.5,29.84,West,272,0.0,12.0,85,0.00,,,0.00,Wunderground v.1.15,2013-05-14 04:57:00,
2013-05-13 22:02:00,59.8,55.6,29.84,West,272,0.0,12.0,86,0.00,,,0.00,Wunderground v.1.15,2013-05-14 05:02:00,
2013-05-13 22:07:00,59.5,55.3,29.85,West,272,0.0,12.0,86,0.00,,,0.00,Wunderground v.1.15,2013-05-14 05:07:00,
2013-05-13 22:12:00,59.4,55.5,29.84,West,272,0.0,12.0,87,0.00,,,0.00,Wunderground v.1.15,2013-05-14 05:12:00,
2013-05-13 22:17:00,59.2,55.3,29.85,West,272,0.0,12.0,87,0.00,,,0.00,Wunderground v.1.15,2013-05-14 05:17:00,
2013-05-13 22:22:00,59.0,55.1,29.85,West,272,0.0,12.0,87,0.00,,,0.00,Wunderground v.1.15,2013-05-14 05:22:00,
2013-05-13 22:27:00,58.8,54.9,29.85,West,272,0.0,12.0,87,0.00,,,0.00,Wunderground v.1.15,2013-05-14 05:27:00,
2013-05-13 22:32:00,58.7,54.8,29.84,West,272,0.0,12.0,87,0.00,,,0.00,Wunderground v.1.15,2013-05-14 05:32:00,
2013-05-13 22:37:00,58.5,55.0,29.85,West,272,0.0,12.0,88,0.00,,,0.00,Wunderground v.1.15,2013-05-14 05:37:00,
2013-05-13 22:43:00,58.2,54.7,29.84,West,272,0.0,12.0,88,0.00,,,0.00,Wunderground v.1.15,2013-05-14 05:43:00,
2013-05-13 22:48:00,58.0,54.5,29.84,West,272,0.0,12.0,88,0.00,,,0.00,Wunderground v.1.15,2013-05-14 05:48:00,
2013-05-13 22:53:00,57.7,54.2,29.84,West,272,0.0,12.0,88,0.00,,,0.00,Wunderground v.1.15,2013-05-14 05:53:00,
2013-05-13 22:58:00,57.5,54.3,29.84,West,272,0.0,12.0,89,0.00,,,0.00,Wunderground v.1.15,2013-05-14 05:58:00,
2013-05-13 23:03:00,57.3,54.1,29.84,West,272,0.0,12.0,89,0.00,,,0.00,Wunderground v.1.15,2013-05-14 06:03:00,
2013-05-13 23:08:00,57.1,53.9,29.84,West,272,0.0,12.0,89,0.00,,,0.00,Wunderground v.1.15,2013-05-14 06:08:00,
2013-05-13 23:14:00,57.0,54.1,29.83,West,272,0.0,12.0,90,0.00,,,0.00,Wunderground v.1.15,2013-05-14 06:14:00,
2013-05-13 23:19:00,56.8,53.9,29.83,West,272,0.0,12.0,90,0.00,,,0.00,Wunderground v.1.15,2013-05-14 06:19:00,
2013-05-13 23:25:00,56.7,53.8,29.83,West,272,0.0,12.0,90,0.00,,,0.00,Wunderground v.1.15,2013-05-14 06:25:00,
2013-05-13 23:30:00,56.6,53.7,29.83,West,272,0.0,12.0,90,0.00,,,0.00,Wunderground v.1.15,2013-05-14 06:30:00,
2013-05-13 23:35:00,56.5,53.6,29.83,West,272,0.0,12.0,90,0.00,,,0.00,Wunderground v.1.15,2013-05-14 06:35:00,
2013-05-13 23:40:00,56.3,53.4,29.83,West,272,0.0,12.0,90,0.00,,,0.00,Wunderground v.1.15,2013-05-14 06:40:00,
2013-05-13 23:45:00,56.2,53.3,29.83,West,272,0.0,12.0,90,0.00,,,0.00,Wunderground v.1.15,2013-05-14 06:45:00,
2013-05-13 23:50:00,56.0,53.4,29.83,West,272,0.0,12.0,91,0.00,,,0.00,Wunderground v.1.15,2013-05-14 06:50:00,
2013-05-13 23:55:00,55.9,53.3,29.82,West,272,0.0,12.0,91,0.00,,,0.00,Wunderground v.1.15,2013-05-14 06:55:00,